QPF
0.01 0.01 0.01 0.01 0.01 0.02 0.03 0.04 0.06 0.06 0.06 0.05 0.04 0.04 0.05 0.07 0.07 0.11 0.13 0.11 0.12 0.13 0.15 0.17 0.19 0.20 0.21 0.18 0.18 0.20 0.21 0.19 0.20 0.21 0.18 0.15 0.11 0.08 0.06 0.05 0.05 0.04 0.04
0.01 0.01 0.01 0.01 0.01 0.01 0.02 0.03 0.03 0.04 0.05 0.04 0.04 0.04 0.05 0.06 0.07 0.09 0.10 0.11 0.13 0.15 0.18 0.20 0.22 0.25 0.27 0.23 0.20 0.21 0.23 0.23 0.23 0.24 0.24 0.19 0.15 0.10 0.07 0.06 0.05 0.04 0.04
0.00 0.00 0.01 0.01 0.01 0.01 0.01 0.02 0.02 0.03 0.04 0.04 0.04 0.04 0.04 0.04 0.06 0.10 0.13 0.13 0.13 0.14 0.15 0.16 0.18 0.20 0.24 0.25 0.22 0.21 0.23 0.23 0.22 0.21 0.25 0.22 0.17 0.12 0.09 0.07 0.06 0.05 0.05
0.00 0.01 0.01 0.01 0.01 0.01 0.01 0.01 0.01 0.02 0.03 0.03 0.04 0.03 0.03 0.03 0.04 0.06 0.09 0.10 0.11 0.13 0.14 0.15 0.16 0.18 0.19 0.20 0.23 0.24 0.23 0.24 0.22 0.20 0.19 0.19 0.16 0.14 0.12 0.10 0.08 0.07 0.06
0.00 0.00 0.01 0.01 0.01 0.01 0.01 0.01 0.01 0.02 0.02 0.02 0.03 0.04 0.03 0.03 0.04 0.05 0.06 0.07 0.08 0.10 0.12 0.13 0.14 0.17 0.19 0.20 0.20 0.22 0.23 0.23 0.21 0.19 0.18 0.18 0.15 0.12 0.09 0.10 0.10 0.10 0.09
0.00 0.01 0.01 0.01 0.01 0.01 0.00 0.01 0.02 0.02 0.02 0.03 0.03 0.04 0.04 0.04 0.05 0.05 0.05 0.06 0.07 0.08 0.09 0.10 0.10 0.12 0.15 0.18 0.19 0.20 0.23 0.23 0.24 0.25 0.23 0.21 0.19 0.16 0.13 0.12 0.12 0.14 0.14
0.01 0.01 0.01 0.01 0.01 0.01 0.01 0.01 0.01 0.02 0.02 0.02 0.04 0.04 0.04 0.05 0.06 0.07 0.07 0.08 0.08 0.08 0.08 0.08 0.07 0.09 0.12 0.14 0.16 0.18 0.20 0.23 0.25 0.27 0.26 0.26 0.24 0.22 0.21 0.21 0.21 0.18 0.16
0.01 0.01 0.01 0.01 0.01 0.01 0.01 0.01 0.01 0.02 0.02 0.02 0.04 0.05 0.04 0.04 0.06 0.06 0.07 0.07 0.08 0.07 0.07 0.08 0.08 0.10 0.11 0.11 0.13 0.17 0.22 0.26 0.29 0.28 0.28 0.31 0.31 0.27 0.25 0.24 0.23 0.22 0.20
0.01 0.01 0.01 0.01 0.01 0.01 0.01 0.01 0.01 0.01 0.02 0.02 0.04 0.05 0.05 0.05 0.06 0.06 0.08 0.09 0.08 0.08 0.07 0.06 0.07 0.09 0.09 0.08 0.09 0.13 0.19 0.24 0.28 0.30 0.30 0.32 0.33 0.32 0.29 0.25 0.23 0.22 0.22
0.01 0.01 0.01 0.00 0.01 0.02 0.02 0.01 0.01 0.02 0.02 0.02 0.03 0.04 0.04 0.04 0.06 0.07 0.08 0.09 0.09 0.08 0.07 0.05 0.04 0.05 0.07 0.09 0.09 0.11 0.15 0.17 0.19 0.22 0.25 0.26 0.28 0.30 0.29 0.29 0.27 0.24 0.19
0.00 0.01 0.01 0.01 0.00 0.01 0.02 0.02 0.03 0.03 0.03 0.03 0.03 0.04 0.05 0.05 0.06 0.07 0.08 0.07 0.07 0.08 0.07 0.06 0.05 0.05 0.06 0.08 0.10 0.10 0.12 0.14 0.15 0.15 0.15 0.16 0.17 0.19 0.19 0.19 0.18 0.16 0.14
0.00 0.01 0.01 0.01 0.01 0.01 0.02 0.02 0.03 0.03 0.04 0.04 0.03 0.04 0.05 0.08 0.08 0.07 0.08 0.08 0.07 0.07 0.08 0.06 0.06 0.06 0.07 0.07 0.08 0.07 0.07 0.08 0.09 0.09 0.10 0.11 0.11 0.12 0.12 0.12 0.12 0.11 0.09
0.01 0.01 0.01 0.01 0.01 0.01 0.01 0.02 0.03 0.04 0.05 0.04 0.04 0.06 0.09 0.12 0.12 0.08 0.09 0.09 0.07 0.08 0.09 0.08 0.08 0.07 0.07 0.06 0.05 0.05 0.04 0.04 0.05 0.06 0.06 0.07 0.07 0.07 0.07 0.06 0.06 0.06 0.06
0.00 0.01 0.01 0.01 0.01 0.01 0.01 0.02 0.02 0.04 0.06 0.06 0.05 0.06 0.08 0.11 0.13 0.11 0.09 0.09 0.08 0.08 0.10 0.11 0.10 0.08 0.07 0.06 0.05 0.06 0.05 0.04 0.04 0.04 0.03 0.04 0.04 0.04 0.03 0.03 0.02 0.02 0.02
0.00 0.00 0.00 0.01 0.01 0.02 0.02 0.02 0.03 0.04 0.07 0.10 0.08 0.07 0.07 0.09 0.10 0.09 0.08 0.08 0.08 0.08 0.08 0.08 0.09 0.08 0.06 0.05 0.06 0.08 0.06 0.05 0.04 0.04 0.03 0.03 0.03 0.03 0.02 0.01 0.01 0.01 0.01
0.00 0.00 0.01 0.01 0.01 0.02 0.03 0.03 0.05 0.06 0.09 0.12 0.11 0.12 0.11 0.10 0.09 0.07 0.07 0.07 0.07 0.06 0.06 0.06 0.06 0.06 0.05 0.04 0.05 0.06 0.06 0.04 0.03 0.03 0.02 0.02 0.02 0.01 0.01 0.00 0.00 0.00 0.00
0.01 0.01 0.01 0.01 0.02 0.03 0.04 0.06 0.07 0.09 0.10 0.13 0.15 0.16 0.14 0.11 0.09 0.07 0.05 0.06 0.07 0.05 0.04 0.03 0.03 0.04 0.04 0.03 0.03 0.03 0.02 0.02 0.02 0.01 0.01 0.01 0.01 0.00 0.00 0.00 0.00 0.00 0.00
0.01 0.01 0.01 0.01 0.02 0.03 0.05 0.07 0.07 0.12 0.14 0.12 0.16 0.19 0.15 0.11 0.09 0.07 0.05 0.05 0.05 0.05 0.05 0.04 0.02 0.02 0.02 0.02 0.01 0.01 0.01 0.01 0.01 0.01 0.01 0.00 0.00 0.00 0.00 0.00 0.00 0.00 0.00
0.01 0.01 0.02 0.02 0.02 0.03 0.05 0.06 0.06 0.08 0.11 0.10 0.12 0.15 0.14 0.12 0.10 0.08 0.06 0.06 0.04 0.03 0.04 0.04 0.03 0.02 0.02 0.01 0.00 0.00 0.00 0.00 0.00 0.00 0.00 0.00 0.00 0.00 0.00 0.00 0.00 0.00 0.00
0.01 0.01 0.02 0.02 0.02 0.03 0.05 0.06 0.06 0.06 0.07 0.09 0.09 0.09 0.11 0.11 0.10 0.08 0.06 0.06 0.04 0.03 0.03 0.04 0.03 0.02 0.01 0.00 0.00 0.00 0.00 0.00 0.00 0.00 0.00 0.00 0.00 0.00 0.00 0.00 0.00 0.00 0.00
0.01 0.01 0.02 0.02 0.02 0.02 0.04 0.06 0.07 0.07 0.05 0.05 0.07 0.08 0.09 0.09 0.09 0.08 0.07 0.06 0.04 0.03 0.03 0.03 0.03 0.03 0.01 0.00 0.00 0.00 0.00 0.00 0.00 0.00 0.00 0.00 0.00 0.00 0.00 0.00 0.00 0.00 0.00
0.02 0.02 0.02 0.03 0.03 0.04 0.06 0.08 0.08 0.06 0.04 0.04 0.06 0.07 0.06 0.06 0.07 0.07 0.07 0.05 0.04 0.04 0.04 0.03 0.02 0.02 0.01 0.01 0.00 0.00 0.00 0.00 0.00 0.00 0.00 0.00 0.00 0.00 0.00 0.00 0.00 0.00 0.00
0.03 0.02 0.03 0.04 0.05 0.05 0.07 0.08 0.07 0.05 0.04 0.04 0.05 0.05 0.04 0.05 0.06 0.06 0.05 0.05 0.04 0.03 0.03 0.03 0.02 0.01 0.01 0.00 0.00 0.00 0.00 0.00 0.00 0.00 0.00 0.00 0.00 0.00 0.00 0.00 0.00 0.00 0.00
0.03 0.03 0.03 0.04 0.06 0.06 0.06 0.07 0.06 0.05 0.04 0.04 0.04 0.04 0.04 0.04 0.04 0.04 0.04 0.04 0.03 0.02 0.02 0.02 0.02 0.01 0.01 0.01 0.00 0.00 0.00 0.00 0.00 0.00 0.00 0.00 0.00 0.00 0.00 0.00 0.00 0.00 0.00
0.04 0.04 0.04 0.05 0.06 0.05 0.06 0.05 0.04 0.03 0.03 0.03 0.03 0.03 0.03 0.03 0.03 0.02 0.02 0.02 0.02 0.01 0.01 0.01 0.01 0.01 0.01 0.00 0.00 0.00 0.00 0.00 0.00 0.00 0.00 0.00 0.00 0.00 0.00 0.00 0.00 0.00 0.00
0.04 0.04 0.04 0.04 0.05 0.05 0.05 0.04 0.03 0.03 0.03 0.03 0.03 0.02 0.02 0.02 0.01 0.01 0.01 0.01 0.01 0.00 0.00 0.00 0.00 0.00 0.00 0.00 0.00 0.00 0.00 0.00 0.00 0.00 0.00 0.00 0.00 0.00 0.00 0.00 0.00 0.00 0.00
MSLP
1012.65 1012.68 1012.66 1012.59 1012.51 1012.42 1012.38 1012.39 1012.47 1012.60 1012.79 1013.00 1013.22 1013.43 1013.63 1013.82 1014.01 1014.21 1014.43 1014.68 1014.94 1015.22 1015.52 1015.83 1016.17 1016.56 1017.03 1017.59 1018.25 1019.03 1019.90 1020.81 1021.73 1022.59 1023.33 1023.94 1024.38 1024.66 1024.81 1024.87 1024.90 1024.93 1025.01
1013.48 1013.55 1013.54 1013.44 1013.30 1013.15 1013.03 1012.95 1012.95 1013.01 1013.13 1013.29 1013.46 1013.62 1013.78 1013.94 1014.09 1014.25 1014.43 1014.63 1014.84 1015.06 1015.29 1015.53 1015.79 1016.10 1016.48 1016.97 1017.59 1018.33 1019.19 1020.14 1021.11 1022.05 1022.91 1023.62 1024.17 1024.56 1024.80 1024.93 1025.01 1025.07 1025.17
1014.13 1014.26 1014.28 1014.19 1014.03 1013.83 1013.63 1013.48 1013.40 1013.40 1013.45 1013.56 1013.69 1013.83 1013.97 1014.10 1014.24 1014.37 1014.52 1014.67 1014.83 1014.98 1015.12 1015.27 1015.42 1015.61 1015.88 1016.26 1016.78 1017.46 1018.28 1019.23 1020.24 1021.25 1022.20 1023.03 1023.71 1024.22 1024.58 1024.81 1024.97 1025.09 1025.23
1014.53 1014.73 1014.80 1014.74 1014.57 1014.34 1014.10 1013.89 1013.74 1013.68 1013.69 1013.76 1013.87 1014.00 1014.14 1014.28 1014.42 1014.55 1014.68 1014.80 1014.91 1014.99 1015.05 1015.08 1015.12 1015.18 1015.32 1015.57 1015.98 1016.57 1017.34 1018.27 1019.29 1020.36 1021.39 1022.33 1023.13 1023.77 1024.24 1024.58 1024.83 1025.03 1025.23
1014.66 1014.94 1015.07 1015.04 1014.88 1014.65 1014.37 1014.12 1013.93 1013.82 1013.80 1013.85 1013.96 1014.10 1014.27 1014.44 1014.60 1014.76 1014.89 1015.00 1015.08 1015.10 1015.08 1015.02 1014.94 1014.88 1014.90 1015.03 1015.33 1015.83 1016.54 1017.42 1018.45 1019.55 1020.64 1021.66 1022.56 1023.30 1023.88 1024.32 1024.65 1024.92 1025.17
1014.58 1014.92 1015.11 1015.13 1014.99 1014.76 1014.47 1014.19 1013.97 1013.83 1013.79 1013.84 1013.96 1014.14 1014.35 1014.57 1014.78 1014.97 1015.14 1015.25 1015.31 1015.30 1015.22 1015.09 1014.92 1014.77 1014.68 1014.72 1014.93 1015.35 1015.99 1016.85 1017.86 1018.96 1020.08 1021.15 1022.12 1022.93 1023.58 1024.08 1024.47 1024.79 1025.08
1014.37 1014.77 1015.01 1015.07 1014.97 1014.74 1014.45 1014.16 1013.92 1013.77 1013.73 1013.78 1013.93 1014.15 1014.40 1014.68 1014.95 1015.19 1015.39 1015.52 1015.59 1015.56 1015.46 1015.28 1015.07 1014.85 1014.70 1014.68 1014.83 1015.19 1015.78 1016.59 1017.57 1018.66 1019.78 1020.86 1021.85 1022.68 1023.36 1023.89 1024.31 1024.65 1024.96
1014.17 1014.61 1014.89 1014.98 1014.91 1014.71 1014.42 1014.13 1013.89 1013.73 1013.69 1013.76 1013.92 1014.17 1014.47 1014.80 1015.11 1015.40 1015.64 1015.80 1015.88 1015.87 1015.76 1015.57 1015.34 1015.11 1014.94 1014.89 1015.01 1015.33 1015.89 1016.66 1017.60 1018.65 1019.73 1020.79 1021.74 1022.56 1023.22 1023.74 1024.15 1024.49 1024.80
1014.06 1014.53 1014.84 1014.97 1014.93 1014.75 1014.48 1014.20 1013.96 1013.80 1013.76 1013.84 1014.02 1014.29 1014.62 1014.97 1015.32 1015.63 1015.90 1016.09 1016.19 1016.19 1016.10 1015.93 1015.72 1015.50 1015.34 1015.30 1015.41 1015.72 1016.25 1016.98 1017.86 1018.85 1019.87 1020.86 1021.75 1022.52 1023.13 1023.61 1023.98 1024.30 1024.58
1014.13 1014.62 1014.95 1015.11 1015.09 1014.94 1014.69 1014.42 1014.19 1014.05 1014.01 1014.08 1014.27 1014.54 1014.86 1015.22 1015.57 1015.90 1016.17 1016.37 1016.49 1016.52 1016.46 1016.33 1016.15 1015.98 1015.86 1015.84 1015.97 1016.27 1016.77 1017.45 1018.27 1019.18 1020.11 1021.01 1021.82 1022.50 1023.04 1023.47 1023.80 1024.07 1024.33
1014.38 1014.89 1015.24 1015.41 1015.42 1015.28 1015.07 1014.83 1014.61 1014.48 1014.44 1014.51 1014.68 1014.93 1015.24 1015.57 1015.90 1016.21 1016.47 1016.67 1016.80 1016.85 1016.82 1016.74 1016.62 1016.51 1016.43 1016.45 1016.60 1016.90 1017.37 1018.00 1018.74 1019.56 1020.39 1021.18 1021.88 1022.48 1022.95 1023.31 1023.60 1023.84 1024.08
1014.79 1015.29 1015.65 1015.83 1015.85 1015.74 1015.56 1015.35 1015.16 1015.05 1015.02 1015.08 1015.23 1015.45 1015.72 1016.01 1016.30 1016.57 1016.80 1016.99 1017.12 1017.19 1017.20 1017.17 1017.11 1017.06 1017.04 1017.10 1017.27 1017.57 1018.00 1018.56 1019.22 1019.94 1020.66 1021.34 1021.95 1022.46 1022.86 1023.18 1023.43 1023.65 1023.88
1015.27 1015.76 1016.10 1016.27 1016.31 1016.22 1016.07 1015.90 1015.76 1015.67 1015.66 1015.72 1015.86 1016.04 1016.27 1016.51 1016.74 1016.97 1017.17 1017.34 1017.47 1017.56 1017.62 1017.63 1017.64 1017.64 1017.68 1017.77 1017.95 1018.24 1018.63 1019.13 1019.70 1020.32 1020.94 1021.53 1022.05 1022.48 1022.83 1023.11 1023.35 1023.56 1023.79
1015.74 1016.20 1016.51 1016.67 1016.70 1016.64 1016.53 1016.41 1016.32 1016.27 1016.29 1016.37 1016.49 1016.66 1016.84 1017.04 1017.23 1017.42 1017.59 1017.74 1017.88 1017.99 1018.08 1018.15 1018.21 1018.27 1018.34 1018.47 1018.66 1018.93 1019.28 1019.71 1020.21 1020.74 1021.27 1021.77 1022.22 1022.60 1022.92 1023.18 1023.40 1023.62 1023.86
1016.15 1016.55 1016.81 1016.94 1016.97 1016.94 1016.87 1016.81 1016.78 1016.79 1016.86 1016.96 1017.10 1017.26 1017.42 1017.59 1017.75 1017.91 1018.06 1018.21 1018.36 1018.49 1018.62 1018.73 1018.84 1018.94 1019.06 1019.20 1019.39 1019.64 1019.96 1020.34 1020.76 1021.22 1021.68 1022.12 1022.52 1022.86 1023.15 1023.41 1023.64 1023.86 1024.11
1016.47 1016.79 1016.99 1017.09 1017.12 1017.11 1017.09 1017.09 1017.13 1017.22 1017.34 1017.49 1017.66 1017.83 1018.00 1018.16 1018.31 1018.46 1018.61 1018.76 1018.92 1019.08 1019.24 1019.39 1019.54 1019.67 1019.82 1019.98 1020.17 1020.40 1020.69 1021.02 1021.40 1021.80 1022.21 1022.60 1022.96 1023.29 1023.57 1023.82 1024.04 1024.27 1024.51
1016.71 1016.95 1017.10 1017.16 1017.19 1017.20 1017.24 1017.31 1017.43 1017.59 1017.78 1017.99 1018.20 1018.41 1018.60 1018.77 1018.93 1019.08 1019.24 1019.41 1019.59 1019.77 1019.96 1020.14 1020.30 1020.47 1020.62 1020.79 1020.98 1021.20 1021.46 1021.77 1022.11 1022.48 1022.85 1023.22 1023.56 1023.86 1024.13 1024.37 1024.58 1024.80 1025.01
1016.94 1017.10 1017.20 1017.24 1017.27 1017.32 1017.41 1017.55 1017.74 1017.98 1018.24 1018.51 1018.78 1019.03 1019.25 1019.45 1019.63 1019.81 1019.98 1020.17 1020.37 1020.57 1020.77 1020.96 1021.14 1021.31 1021.47 1021.64 1021.82 1022.03 1022.27 1022.56 1022.88 1023.23 1023.58 1023.93 1024.25 1024.54 1024.79 1025.00 1025.19 1025.36 1025.54
1017.21 1017.33 1017.39 1017.42 1017.47 1017.55 1017.69 1017.89 1018.15 1018.45 1018.78 1019.11 1019.42 1019.71 1019.98 1020.21 1020.42 1020.62 1020.83 1021.03 1021.24 1021.44 1021.65 1021.84 1022.02 1022.18 1022.33 1022.49 1022.66 1022.86 1023.09 1023.37 1023.67 1024.00 1024.34 1024.67 1024.97 1025.24 1025.45 1025.63 1025.77 1025.89 1026.00
1017.59 1017.67 1017.72 1017.77 1017.84 1017.96 1018.14 1018.39 1018.70 1019.05 1019.42 1019.79 1020.15 1020.47 1020.77 1021.04 1021.28 1021.51 1021.74 1021.95 1022.17 1022.38 1022.58 1022.76 1022.92 1023.06 1023.20 1023.34 1023.49 1023.67 1023.89 1024.15 1024.44 1024.75 1025.07 1025.38 1025.65 1025.88 1026.05 1026.18 1026.26 1026.31 1026.34
1018.09 1018.17 1018.23 1018.29 1018.39 1018.55 1018.76 1019.04 1019.38 1019.75 1020.15 1020.54 1020.91 1021.27 1021.59 1021.88 1022.16 1022.41 1022.66 1022.89 1023.11 1023.32 1023.51 1023.67 1023.81 1023.94 1024.05 1024.16 1024.29 1024.45 1024.64 1024.87 1025.14 1025.43 1025.71 1025.98 1026.22 1026.40 1026.53 1026.59 1026.61 1026.58 1026.54
1018.68 1018.78 1018.87 1018.96 1019.09 1019.27 1019.51 1019.80 1020.13 1020.50 1020.89 1021.28 1021.66 1022.02 1022.35 1022.67 1022.97 1023.25 1023.51 1023.77 1024.00 1024.21 1024.39 1024.55 1024.67 1024.77 1024.85 1024.94 1025.04 1025.16 1025.32 1025.52 1025.74 1025.99 1026.23 1026.45 1026.63 1026.77 1026.83 1026.84 1026.79 1026.71 1026.60
1019.32 1019.45 1019.57 1019.70 1019.85 1020.04 1020.28 1020.55 1020.87 1021.21 1021.57 1021.93 1022.29 1022.65 1022.98 1023.31 1023.63 1023.94 1024.23 1024.51 1024.76 1024.98 1025.17 1025.32 1025.44 1025.52 1025.59 1025.65 1025.72 1025.80 1025.91 1026.06 1026.23 1026.41 1026.59 1026.75 1026.88 1026.95 1026.97 1026.93 1026.84 1026.71 1026.55
1019.93 1020.09 1020.24 1020.39 1020.56 1020.75 1020.97 1021.22 1021.49 1021.79 1022.10 1022.42 1022.75 1023.08 1023.41 1023.75 1024.08 1024.41 1024.74 1025.04 1025.33 1025.58 1025.79 1025.96 1026.08 1026.17 1026.22 1026.26 1026.30 1026.34 1026.40 1026.48 1026.58 1026.69 1026.80 1026.89 1026.96 1026.98 1026.95 1026.88 1026.77 1026.62 1026.45
1020.43 1020.62 1020.80 1020.97 1021.14 1021.32 1021.51 1021.72 1021.95 1022.19 1022.45 1022.71 1023.00 1023.30 1023.62 1023.95 1024.30 1024.65 1025.01 1025.35 1025.68 1025.97 1026.22 1026.42 1026.57 1026.67 1026.72 1026.75 1026.76 1026.76 1026.76 1026.77 1026.80 1026.83 1026.86 1026.88 1026.89 1026.87 1026.82 1026.74 1026.63 1026.49 1026.34
1020.78 1020.99 1021.18 1021.36 1021.53 1021.70 1021.87 1022.04 1022.22 1022.40 1022.60 1022.82 1023.06 1023.33 1023.62 1023.94 1024.30 1024.67 1025.05 1025.44 1025.81 1026.15 1026.44 1026.69 1026.87 1026.99 1027.06 1027.09 1027.07 1027.04 1026.99 1026.93 1026.88 1026.84 1026.80 1026.76 1026.72 1026.68 1026.62 1026.55 1026.47 1026.37 1026.27
Thickness
5707 5707 5707 5707 5708 5707 5706 5706 5705 5705 5705 5705 5704 5702 5703 5703 5703 5703 5702 5703 5703 5703 5703 5704 5704 5703 5703 5702 5701 5699 5695 5693 5692 5687 5681 5678 5678 5680 5680 5681 5682 5682 5680
5699 5697 5698 5698 5697 5696 5696 5696 5695 5695 5696 5697 5696 5696 5696 5696 5697 5696 5695 5695 5696 5696 5698 5698 5698 5699 5698 5698 5697 5695 5691 5688 5689 5686 5678 5671 5668 5669 5672 5672 5673 5673 5672
5689 5688 5688 5687 5687 5687 5686 5687 5686 5686 5687 5688 5689 5689 5688 5689 5689 5689 5689 5688 5688 5689 5690 5691 5691 5692 5692 5692 5692 5691 5689 5685 5684 5685 5682 5675 5670 5665 5661 5662 5663 5663 5663
5683 5681 5679 5678 5677 5677 5677 5677 5677 5677 5678 5679 5680 5680 5679 5680 5682 5681 5681 5680 5680 5681 5682 5683 5685 5686 5687 5687 5687 5688 5686 5684 5681 5680 5681 5681 5678 5668 5656 5653 5653 5653 5653
5675 5672 5670 5668 5668 5668 5669 5669 5669 5669 5670 5671 5671 5672 5673 5674 5674 5673 5672 5672 5673 5673 5674 5675 5677 5679 5680 5682 5683 5683 5682 5682 5680 5678 5676 5673 5672 5670 5663 5652 5646 5643 5642
5666 5664 5662 5661 5660 5660 5660 5660 5659 5660 5661 5662 5663 5664 5665 5664 5664 5665 5665 5664 5664 5665 5666 5667 5669 5671 5672 5674 5676 5677 5676 5677 5677 5675 5673 5671 5669 5666 5663 5654 5645 5639 5634
5659 5655 5653 5651 5650 5649 5649 5649 5650 5650 5650 5652 5653 5654 5655 5655 5656 5656 5656 5656 5656 5656 5657 5659 5661 5663 5664 5666 5668 5670 5671 5672 5671 5670 5669 5668 5667 5665 5660 5652 5641 5633 5626
5651 5647 5643 5641 5640 5639 5639 5639 5640 5640 5640 5641 5643 5644 5645 5647 5647 5647 5648 5647 5647 5647 5648 5650 5651 5654 5656 5658 5660 5662 5663 5664 5664 5664 5662 5661 5659 5657 5654 5648 5639 5628 5620
5642 5638 5635 5632 5631 5630 5630 5630 5630 5630 5630 5631 5632 5634 5635 5636 5636 5636 5637 5637 5637 5638 5639 5640 5642 5644 5646 5648 5650 5651 5653 5654 5655 5655 5655 5653 5651 5649 5647 5643 5639 5631 5620
5634 5630 5626 5624 5622 5622 5621 5620 5620 5620 5620 5621 5622 5624 5624 5625 5625 5626 5626 5626 5626 5627 5629 5631 5633 5634 5636 5637 5639 5641 5642 5643 5644 5644 5644 5643 5641 5638 5636 5634 5631 5629 5623
5627 5622 5618 5615 5614 5614 5613 5611 5611 5611 5610 5610 5611 5612 5613 5614 5615 5615 5615 5615 5616 5618 5619 5621 5623 5625 5626 5627 5629 5630 5632 5633 5633 5634 5633 5631 5630 5629 5627 5625 5622 5620 5618
5619 5614 5610 5608 5606 5604 5603 5602 5601 5601 5600 5600 5600 5601 5602 5603 5603 5603 5603 5605 5606 5608 5610 5612 5614 5615 5616 5618 5619 5621 5622 5623 5623 5623 5623 5622 5620 5619 5618 5617 5615 5612 5609
5609 5605 5601 5598 5596 5594 5592 5592 5591 5590 5589 5590 5590 5590 5591 5591 5591 5592 5592 5594 5596 5598 5600 5602 5604 5604 5605 5607 5609 5611 5612 5613 5614 5614 5613 5612 5611 5610 5609 5608 5606 5603 5600
5601 5596 5591 5587 5584 5583 5582 5581 5580 5579 5579 5580 5580 5579 5579 5579 5579 5581 5582 5584 5586 5588 5589 5591 5592 5593 5595 5597 5598 5600 5601 5602 5602 5602 5602 5602 5601 5600 5600 5598 5595 5593 5590
5591 5585 5581 5577 5574 5573 5571 5570 5569 5568 5568 5568 5568 5567 5567 5568 5569 5571 5572 5573 5576 5578 5579 5580 5581 5582 5584 5585 5587 5589 5590 5591 5591 5590 5589 5588 5587 5587 5588 5589 5586 5584 5582
5582 5576 5571 5567 5564 5562 5561 5559 5558 5557 5557 5557 5557 5556 5557 5557 5558 5560 5562 5563 5565 5567 5568 5569 5570 5571 5570 5571 5574 5578 5579 5579 5579 5579 5578 5577 5576 5574 5574 5573 5572 5572 5572
5574 5568 5562 5557 5554 5551 5550 5549 5548 5547 5547 5547 5547 5547 5548 5548 5549 5551 5552 5554 5555 5556 5557 5557 5558 5558 5557 5559 5562 5565 5568 5569 5568 5568 5569 5569 5565 5566 5564 5561 5560 5558 5556
5566 5559 5553 5548 5545 5542 5540 5539 5539 5538 5537 5537 5538 5538 5539 5539 5540 5542 5543 5545 5546 5547 5548 5548 5547 5547 5546 5548 5551 5554 5557 5558 5558 5558 5558 5557 5556 5556 5556 5555 5552 5549 5545
5557 5550 5545 5540 5536 5534 5532 5531 5530 5529 5529 5529 5529 5530 5531 5531 5532 5533 5534 5535 5537 5538 5540 5539 5539 5538 5537 5538 5542 5546 5548 5547 5547 5547 5546 5547 5544 5541 5543 5545 5542 5539 5535
5546 5541 5536 5532 5529 5526 5525 5524 5523 5522 5522 5522 5522 5522 5524 5525 5525 5526 5526 5527 5529 5530 5532 5531 5531 5530 5529 5529 5533 5538 5542 5541 5540 5538 5535 5532 5532 5531 5532 5536 5534 5531 5529
5538 5534 5530 5526 5523 5521 5520 5518 5517 5516 5516 5516 5516 5516 5517 5517 5518 5519 5519 5521 5523 5523 5524 5524 5523 5523 5522 5522 5525 5529 5535 5535 5535 5534 5531 5524 5521 5521 5522 5524 5524 5520 5520
5532 5528 5524 5520 5517 5516 5515 5514 5512 5510 5510 5511 5511 5511 5511 5513 5513 5513 5514 5515 5517 5517 5518 5519 5519 5518 5517 5515 5516 5518 5520 5523 5526 5526 5523 5516 5513 5513 5513 5514 5512 5512 5512
5527 5523 5519 5515 5512 5511 5511 5510 5507 5506 5506 5506 5507 5507 5507 5508 5508 5509 5510 5511 5513 5516 5516 5516 5517 5516 5514 5510 5509 5511 5512 5513 5516 5514 5509 5508 5507 5507 5507 5505 5506 5507 5511
5523 5519 5516 5512 5509 5508 5508 5507 5505 5503 5503 5503 5503 5503 5504 5505 5505 5506 5508 5510 5512 5513 5514 5514 5513 5512 5512 5511 5510 5510 5509 5507 5509 5509 5504 5503 5503 5504 5502 5502 5505 5506 5505
5520 5517 5514 5511 5508 5506 5505 5504 5502 5501 5501 5501 5501 5502 5502 5502 5502 5502 5501 5504 5503 5505 5509 5510 5510 5510 5508 5500 5498 5504 5507 5507 5505 5505 5507 5507 5507 5506 5505 5504 5503 5502 5502
5518 5515 5513 5510 5508 5505 5503 5502 5501 5500 5500 5501 5501 5502 5502 5501 5502 5501 5498 5493 5496 5496 5497 5498 5500 5499 5496 5494 5494 5495 5496 5497 5497 5502 5506 5505 5505 5505 5504 5503 5502 5501 5499